This demonstration page uses our WeatherBlox Daily Observations layout. Learn more.

Left ArrowRight Arrow

39.92423, -83.80882

Hourly Observations for January 10, 2021

Temp ( °F °C ) Dew Point ( °F °C ) Humidity (%) Winds ( mph kmh ) Pressure ( in mb ) Visibility ( mi km ) Precip ( " mm )
12:56 am 00:56 Clear 23 -5 23 -5 100 100 W 3 6 30.33 1027 7 11.26538 0 0
1:56 am 01:56 Clear 22 -5.6 22 -5.6 100 100 Calm 30.33 1027 7 11.26538 0 0
2:56 am 02:56 Clear with Mist and Fog 21 -6.1 21 -6.1 100 100 W 3 6 30.35 1028 6 9.65604 0 0
3:56 am 03:56 Clear 21 -6.1 21 -6.1 100 100 WSW 5 7 30.37 1028 7 11.26538 0 0
4:56 am 04:56 Clear 20 -6.7 20 -6.7 100 100 Calm 30.37 1029 7 11.26538 0 0
5:56 am 05:56 Clear with Mist and Fog 20 -6.7 20 -6.7 100 100 Calm 30.38 1029 5 8.0467 0 0
6:56 am 06:56 Clear with Mist and Fog 19 -7.2 19 -7.2 100 100 W 3 6 30.38 1029 5 8.0467 0 0
7:56 am 07:56 Clear with Mist and Fog 19 -7.2 19 -7.2 100 100 Calm 30.39 1029 3 4.82802 0.01 0.254
8:56 am 08:56 Sunny with Mist and Fog 22 -5.6 22 -5.6 100 100 Calm 30.39 1029 4 6.43736 0 0
9:56 am 09:56 Sunny with Mist and Fog 26 -3.3 25 -3.9 96 96 Calm 30.4 1030 6 9.65604 0 0
10:56 am 10:56 Sunny 31 -0.6 27 -2.8 85 85 W 3 6 30.41 1030 8 12.87472 0 0
11:56 am 11:56 Sunny 32 0 26 -3.3 79 79 SW 6 9 30.39 1029 10 16.0934 0 0
12:56 pm 12:56 Sunny 35 1.7 26 -3.3 70 70 W 7 11 30.35 1028 10 16.0934 0 0
1:56 pm 13:56 Mostly Sunny 36 2.2 26 -3.3 67 67 W 10 17 30.35 1028 10 16.0934 0 0
2:56 pm 14:56 Sunny 35 1.7 25 -3.9 67 67 W 8 13 30.34 1027 10 16.0934 0 0
3:56 pm 15:56 Sunny 36 2.2 25 -3.9 64 64 W 3 6 30.33 1027 10 16.0934 0 0
4:56 pm 16:56 Sunny 34 1.1 27 -2.8 76 76 W 5 7 30.34 1028 10 16.0934 0 0
5:56 pm 17:56 Clear 31 -0.6 26 -3.3 82 82 NNW 3 6 30.34 1027 10 16.0934 0 0
6:56 pm 18:56 Clear 29 -1.7 25 -3.9 85 85 NNW 3 6 30.35 1028 10 16.0934 0 0
7:56 pm 19:56 Clear 26 -3.3 25 -3.9 96 96 NNW 6 9 30.34 1028 8 12.87472 0 0
8:56 pm 20:56 Clear 27 -2.8 25 -3.9 92 92 NNW 3 6 30.34 1027 8 12.87472 0 0
9:56 pm 21:56 Clear 27 -2.8 26 -3.3 96 96 NW 3 6 30.33 1027 7 11.26538 0 0
10:56 pm 22:56 Clear with Mist and Fog 26 -3.3 25 -3.9 96 96 NW 5 7 30.34 1028 6 9.65604 0 0
11:56 pm 23:56 Clear with Mist and Fog 27 -2.8 26 -3.3 96 96 Calm 30.33 1027 6 9.65604 0 0

Powered by AerisWeather